[[{"header":{"parameterUnit":"m.s-1","parameterCategory":1,"la1":30.2991,"la2":30.254,"lo1":-89.0895,"lo2":-89.0444,"dy":0.0017,"dx":0.0017,"nx":28,"ny":28,"refTime":"2024-10-19T09:00:00:Z","depth":0,"parameterNumber":2,"parameterNumberName":"U-component_of_WINDS"},"data":[0,0,0,0,0,0,0,0,0,0,0,0,0,0,0,0,0,0,0,0,0,0,0,0,0,0,0,0,0,0,0,0,0,0,0,0,0,0,0,0,0,0,0,0,0,0,0,0,0,0,0,0,0,0,0,0,0,0,-3.9337,-3.9338,0,-3.9453,-3.9455,-3.9456,-3.9342,-3.9338,-3.9333,-3.9329,-3.9453,-3.946,-3.9468,0,0,0,0,0,0,0,0,0,0,0,0,0,-3.9019,-3.9025,-3.9336,-3.9338,-3.9339,-3.9453,-3.9455,-3.9456,-3.9343,-3.9338,-3.9332,-3.9327,-3.945,-3.9459,-3.9468,0,0,0,0,0,0,0,0,0,0,0,0,0,-3.9148,-3.9027,-3.9336,-3.9296,-3.9294,-3.9453,-3.9455,-3.9457,-3.9344,-3.9337,-3.9331,-3.9324,-3.9447,-3.9458,-3.947,-3.9675,0,0,-3.9504,-3.9509,0,0,0,0,0,0,0,0,-3.9141,-3.916,-3.9301,-3.9299,-3.9297,-3.9376,-3.9388,-3.953,-3.9346,-3.9325,-3.9329,-3.9321,-3.9433,-3.9445,-3.9482,-3.9681,-3.9686,-3.9505,-3.9512,-3.9517,-3.952,0,0,0,0,0,0,0,-3.9132,-3.9155,-3.9383,-3.9303,-3.9301,-3.9274,-3.9285,-3.9414,-3.9416,-3.9327,-3.9319,-3.9334,-3.9431,-3.9472,-3.9484,-3.9688,-3.9505,-3.9515,-3.9522,-3.9526,-4.0063,-4.007,0,0,0,0,0,0,-3.9127,-3.9148,-3.9379,-3.9386,-3.9201,-3.9285,-3.9297,-3.9358,-3.9414,-3.9416,-3.9339,-3.9328,-3.9456,-3.9471,-3.9488,-3.9734,-3.9517,-3.9527,-3.9534,-4.0055,-4.0065,-4.0073,0,0,0,0,0,0,-3.9121,-3.9149,-3.9374,-3.9265,-3.9292,-3.9298,-3.9367,-3.9364,-3.9404,-3.9424,-3.9424,-3.9381,-3.9451,-3.9472,-3.9629,-3.9737,-3.9532,-3.9542,-4.0047,-4.0058,-4.0069,-4.0227,0,0,0,0,0,0,-3.9112,-3.9147,-3.9224,-3.9267,-3.9298,-3.9513,-3.9373,-3.9371,-3.9423,-3.941,-3.9463,-3.9465,-3.9447,-3.9613,-3.9641,-3.9749,-3.9551,-4.0037,-4.0052,-4.0065,-4.0213,-4.0243,-4.0268,0,0,0,0,0,-3.9101,-3.9265,-3.9229,-3.9258,-3.9394,-3.9519,-3.9537,-3.9512,-3.9432,-3.9511,-3.9524,-3.9463,-3.972,-3.963,-3.966,-3.9773,-4.003,-4.0048,-4.0064,-4.02,-4.0237,-4.0268,0,0,0,0,0,0,-3.9235,-3.927,-3.923,-3.9412,-3.9464,-3.95,-3.9598,-3.9551,-3.9627,-3.9612,-3.9579,-3.9592,-3.9759,-3.9781,-3.968,-3.9976,-3.9862,-3.9886,-3.9956,-3.9991,-4.0018,-4.0011,-3.9561,0,0,0,0,0,-3.9286,-3.9384,-3.9408,-3.9567,-3.9595,-3.9592,-3.9646,-3.9622,-3.9675,-3.9696,-3.972,-3.9775,-3.9868,-3.993,-4.0016,-4.0214,-4.0226,-4.0307,-4.0335,-4.0357,-4.0379,-4.0488,-4.0526,-4.0128,-4.0128,-4.0128,0,0,-3.9392,-3.9423,-3.9487,-3.9595,-3.9632,-3.9735,-3.9611,-3.9726,-3.9803,-3.9714,-3.9864,-3.9884,-3.9942,-4.0122,-4.0202,-4.0146,-4.0491,-4.0379,-4.0397,-4.0407,-4.051,-4.0547,-4.0581,-4.014,-4.0137,-4.0136,0,0,-3.9639,-3.9671,-3.9807,-3.9847,-3.9904,-3.9901,-3.9934,-3.9978,-3.9987,-4.0137,-4.0073,-4.0165,-4.0325,-4.037,-4.0414,-4.0678,-4.0627,-4.0707,-4.0854,-4.0961,-4.0992,-4.102,-4.1117,-4.1152,-4.0728,-4.0729,-4.0729,0,-3.9764,-3.9916,-3.9884,-4.0003,-4.0054,-3.9976,-4.0116,-4.0156,-4.0239,-4.0277,-4.0212,-4.0412,-4.0446,-4.0636,-4.0701,-4.0738,-4.0776,-4.0702,-4.099,-4.1017,-4.1043,-4.1135,-4.1171,-4.0738,-4.0737,-4.0736,-4.0735,0,-4.0068,-4.0175,-4.0279,-4.036,-4.0422,-4.0551,-4.054,-4.0606,-4.0577,-4.0582,-4.0737,-4.0774,-4.0868,-4.0911,-4.0884,-4.1098,-4.1062,-4.0994,-4.088,-4.1091,-4.1177,-4.1212,-4.0752,-4.0749,-4.0746,-4.0743,0,0,-4.0405,-4.0467,-4.0506,-4.0543,-4.06,-4.0683,-4.0808,-4.0899,-4.0958,-4.1018,-4.1125,-4.1262,-4.12,-4.125,-4.1227,-4.132,-4.1531,-4.1241,-4.1242,-4.1297,-4.1773,-4.1826,-4.1867,-4.1496,-4.1502,-4.1507,-4.1769,0,-4.0655,-4.0873,-4.0848,-4.1057,-4.1156,-4.1084,-4.1194,-4.1243,-4.125,-4.1337,-4.1345,-4.1445,-4.1354,-4.1384,-4.1473,-4.1487,-4.1627,-4.1467,-4.1597,-4.1602,-4.1588,-4.1912,-4.1968,-4.2213,-4.1802,-4.1808,-4.1812,0,-4.0977,-4.1048,-4.1267,-4.1311,-4.1352,-4.1451,-4.1533,-4.1615,-4.1669,-4.1668,-4.1725,-4.1686,-4.1814,-4.1695,-4.1873,-4.1765,-4.1817,-4.1832,-4.1841,-4.1855,-4.1722,-4.1937,-4.229,-4.2328,-4.1864,-4.186,-4.1856,0,-4.1205,-4.1355,-4.1505,-4.1539,-4.1593,-4.1665,-4.1691,-4.1737,-4.1794,-4.1866,-4.1903,-4.1989,-4.2037,-4.2105,-4.2092,-4.2005,-4.2275,-4.2153,-4.228,-4.2281,-4.2342,-4.2339,-4.2712,-4.2371,-4.237,-4.2369,-4.2369,0,-4.1489,-4.1627,-4.1609,-4.1702,-4.1854,-4.1824,-4.1976,-4.1993,-4.2036,-4.2132,-4.2074,-4.2167,-4.2141,-4.2233,-4.2223,-4.2374,-4.2395,-4.24,-4.2396,-4.2407,-4.2407,-4.2443,-4.2427,-4.2379,-4.2377,-4.2375,-4.2373,0,-4.177,-4.1763,-4.1923,-4.1961,-4.1973,-4.2085,-4.2117,-4.2206,-4.2208,-4.2332,-4.2359,-4.2364,-4.2469,-4.2461,-4.2579,-4.2573,-4.276,-4.2735,-4.2742,-4.2738,-4.2866,-4.2855,-4.3277,-4.3332,-4.2953,-4.2956,-4.2959,0,-4.1954,-4.2058,-4.2106,-4.2166,-4.2197,-4.2294,-4.2352,-4.2326,-4.2388,-4.2458,-4.2539,-4.2638,-4.2717,-4.2889,-4.2904,-4.2995,-4.2973,-4.3115,-4.2987,-4.2995,-4.298,-4.2975,-4.2986,-4.3141,-4.3145,-4.3149,-4.3152,0,-4.2281,-4.2273,-4.2357,-4.2441,-4.2511,-4.2576,-4.2635,-4.2688,-4.2668,-4.2742,-4.2848,-4.2909,-4.303,-4.313,-4.3217,-4.3245,-4.3198,-4.3191,-4.3226,-4.324,-4.3241,-4.3245,-4.2814,-4.3183,-4.3179,-4.3177,-4.3176,-4.3174,-4.2521,-4.2611,-4.266,-4.2756,-4.2798,-4.2855,-4.294,-4.2953,-4.3041,-4.3137,-4.3116,-4.3237,-4.3289,-4.34,-4.3437,-4.3532,-4.3481,-4.3531,-4.3544,-4.3558,-4.3574,-4.3223,-4.3547,-4.3546,-4.3545,-4.3545,-4.3544,0,-4.2848,-4.2876,-4.2965,-4.3049,-4.3126,-4.3071,-4.3134,-4.3202,-4.3308,-4.336,-4.3439,-4.3562,-4.3659,-4.3682,-4.3776,-4.3848,-4.3829,-4.3874,-4.387,-4.3878,-4.3612,-4.3574,-4.3888,-4.3888,-4.3888,-4.3888,-4.3888,-4.3888,-4.3028,-4.3178,-4.3176,-4.3346,-4.3373,-4.349,-4.3531,-4.3584,-4.3625,-4.3765,-4.3845,-4.3859,-4.39,-4.3997,-4.4085,-4.4089,-4.4128,-4.4183,-4.4179,-4.3931,-4.3896,-4.3864,-4.3828,-4.4191,-4.4191,-4.4437,-4.444,-4.4441]},{"header":{"parameterUnit":"m.s-1","parameterCategory":1,"la1":30.2991,"la2":30.254,"lo1":-89.0895,"lo2":-89.0444,"dy":0.0017,"dx":0.0017,"nx":28,"ny":28,"refTime":"2024-10-19T09:00:00:Z","depth":0,"parameterNumber":3,"parameterNumberName":"V-component_of_WINDS"},"data":[0,0,0,0,0,0,0,0,0,0,0,0,0,0,0,0,0,0,0,0,0,0,0,0,0,0,0,0,0,0,0,0,0,0,0,0,0,0,0,0,0,0,0,0,0,0,0,0,0,0,0,0,0,0,0,0,0,0,-3.3345,-3.3345,0,-3.3341,-3.3341,-3.3341,-3.3273,-3.3271,-3.3269,-3.3267,-3.3264,-3.3265,-3.3267,0,0,0,0,0,0,0,0,0,0,0,0,0,-3.329,-3.3292,-3.3345,-3.3345,-3.3345,-3.3341,-3.3341,-3.3341,-3.3273,-3.3271,-3.3269,-3.3267,-3.3263,-3.3265,-3.3267,0,0,0,0,0,0,0,0,0,0,0,0,0,-3.3303,-3.3292,-3.3345,-3.331,-3.3307,-3.3341,-3.3341,-3.3341,-3.3273,-3.3271,-3.3268,-3.3266,-3.3263,-3.3265,-3.3267,-3.3335,0,0,-3.3274,-3.3275,0,0,0,0,0,0,0,0,-3.3303,-3.3305,-3.3315,-3.3313,-3.3309,-3.3305,-3.3321,-3.3339,-3.3274,-3.3286,-3.3267,-3.3264,-3.328,-3.328,-3.3286,-3.3334,-3.3334,-3.3275,-3.3276,-3.3277,-3.3278,0,0,0,0,0,0,0,-3.3302,-3.3305,-3.3343,-3.3315,-3.3312,-3.3294,-3.3293,-3.3324,-3.3298,-3.3285,-3.328,-3.328,-3.3277,-3.3284,-3.3285,-3.3334,-3.3275,-3.3277,-3.3278,-3.3279,-3.3437,-3.3439,0,0,0,0,0,0,-3.3306,-3.3305,-3.3343,-3.3343,-3.3299,-3.3297,-3.3296,-3.3309,-3.3297,-3.3293,-3.3283,-3.3277,-3.3281,-3.3282,-3.3285,-3.3361,-3.3277,-3.3279,-3.3281,-3.3434,-3.3437,-3.344,0,0,0,0,0,0,-3.3305,-3.331,-3.3344,-3.3323,-3.3326,-3.3301,-3.3316,-3.331,-3.3316,-3.3296,-3.329,-3.3294,-3.3279,-3.3281,-3.3322,-3.336,-3.328,-3.3282,-3.3431,-3.3435,-3.3439,-3.3516,0,0,0,0,0,0,-3.3304,-3.331,-3.3336,-3.3324,-3.3327,-3.3382,-3.3318,-3.3312,-3.332,-3.3313,-3.3305,-3.3301,-3.3277,-3.3319,-3.3325,-3.3362,-3.3284,-3.3427,-3.3432,-3.3437,-3.351,-3.3523,-3.3533,0,0,0,0,0,-3.3302,-3.3358,-3.3337,-3.3342,-3.3359,-3.3384,-3.3386,-3.3358,-3.3324,-3.3349,-3.3335,-3.3301,-3.3356,-3.3324,-3.333,-3.3368,-3.3424,-3.3431,-3.3437,-3.3505,-3.352,-3.3533,0,0,0,0,0,0,-3.3375,-3.3356,-3.3333,-3.3387,-3.3388,-3.3373,-3.3404,-3.3375,-3.3385,-3.3378,-3.3342,-3.3341,-3.3387,-3.3382,-3.3347,-3.3432,-3.3384,-3.3392,-3.3434,-3.3448,-3.3459,-3.3459,-3.3286,0,0,0,0,0,-3.3398,-3.342,-3.3402,-3.3451,-3.3453,-3.3429,-3.3439,-3.3417,-3.3416,-3.3416,-3.3406,-3.3407,-3.3423,-3.3436,-3.345,-3.3509,-3.3506,-3.3539,-3.355,-3.356,-3.3567,-3.3596,-3.361,-3.3461,-3.3461,-3.3461,0,0,-3.3444,-3.3436,-3.3453,-3.3466,-3.3464,-3.3488,-3.3429,-3.3457,-3.3474,-3.342,-3.3458,-3.3451,-3.3449,-3.3499,-3.3521,-3.3496,-3.3607,-3.3568,-3.3576,-3.3577,-3.3604,-3.3618,-3.3631,-3.3465,-3.3464,-3.3464,0,0,-3.3541,-3.3538,-3.3578,-3.3577,-3.3575,-3.3558,-3.3568,-3.3557,-3.355,-3.3587,-3.3547,-3.3566,-3.3597,-3.3597,-3.3601,-3.3697,-3.3665,-3.3703,-3.3763,-3.3792,-3.3804,-3.3814,-3.3847,-3.3859,-3.371,-3.371,-3.371,0,-3.3599,-3.3633,-3.3602,-3.3632,-3.3638,-3.3591,-3.363,-3.3631,-3.3634,-3.3639,-3.3612,-3.3648,-3.3644,-3.3693,-3.3716,-3.3721,-3.3731,-3.3703,-3.3805,-3.3814,-3.3824,-3.3855,-3.3867,-3.3715,-3.3714,-3.3714,-3.3713,0,-3.3704,-3.3728,-3.3761,-3.3764,-3.3774,-3.3809,-3.3783,-3.3797,-3.3774,-3.376,-3.3798,-3.3791,-3.3803,-3.3813,-3.3791,-3.3859,-3.3843,-3.3811,-3.3761,-3.3843,-3.3871,-3.3883,-3.3721,-3.3719,-3.3718,-3.3717,0,0,-3.3847,-3.3832,-3.3844,-3.3844,-3.3838,-3.3856,-3.3889,-3.39,-3.3912,-3.3916,-3.3941,-3.3968,-3.3938,-3.3942,-3.392,-3.3946,-3.4021,-3.391,-3.3909,-3.393,-3.4093,-3.4117,-3.4131,-3.4,-3.4002,-3.4004,-3.4093,0,-3.3939,-3.3993,-3.3965,-3.4023,-3.4044,-3.3999,-3.4027,-3.4026,-3.4014,-3.403,-3.4016,-3.4035,-3.3994,-3.3997,-3.402,-3.4007,-3.4053,-3.4,-3.4023,-3.4024,-3.4024,-3.4146,-3.4172,-3.4256,-3.4104,-3.4106,-3.4107,0,-3.4054,-3.4061,-3.4121,-3.4109,-3.4117,-3.4143,-3.4151,-3.4167,-3.4165,-3.4154,-3.4159,-3.413,-3.4161,-3.4113,-3.4153,-3.4118,-3.4126,-3.4121,-3.4123,-3.4123,-3.407,-3.4149,-3.4282,-3.4295,-3.4125,-3.4124,-3.4122,0,-3.415,-3.4176,-3.4214,-3.4216,-3.4204,-3.4223,-3.4219,-3.4214,-3.4222,-3.4229,-3.4233,-3.4244,-3.425,-3.4258,-3.4233,-3.4201,-3.4277,-3.4227,-3.4268,-3.4269,-3.4286,-3.4285,-3.4421,-3.4293,-3.4293,-3.4293,-3.4292,0,-3.4255,-3.4293,-3.4257,-3.4281,-3.4321,-3.4289,-3.4331,-3.4321,-3.4317,-3.4338,-3.43,-3.432,-3.4286,-3.4303,-3.4284,-3.432,-3.4323,-3.4315,-3.4309,-3.4317,-3.4318,-3.4321,-3.4314,-3.4296,-3.4295,-3.4294,-3.4294,0,-3.437,-3.4347,-3.4386,-3.4371,-3.4368,-3.4399,-3.4386,-3.4407,-3.4392,-3.4418,-3.4423,-3.4399,-3.4417,-3.4393,-3.4408,-3.4395,-3.4445,-3.443,-3.4445,-3.4441,-3.4483,-3.4479,-3.4625,-3.4642,-3.4504,-3.4505,-3.4506,0,-3.4438,-3.4466,-3.4454,-3.4464,-3.4462,-3.4481,-3.4489,-3.4458,-3.4468,-3.4467,-3.4488,-3.4502,-3.4512,-3.4543,-3.4527,-3.4538,-3.4523,-3.4574,-3.4525,-3.4532,-3.4523,-3.4521,-3.4523,-3.4584,-3.4585,-3.4587,-3.4588,0,-3.456,-3.4548,-3.456,-3.4569,-3.458,-3.4585,-3.4588,-3.46,-3.4567,-3.458,-3.4598,-3.4605,-3.4621,-3.4635,-3.4642,-3.4638,-3.4608,-3.4604,-3.4613,-3.4622,-3.4629,-3.4624,-3.4471,-3.46,-3.4599,-3.4598,-3.4597,-3.4597,-3.4653,-3.4675,-3.4669,-3.4685,-3.4683,-3.4687,-3.4705,-3.4692,-3.4706,-3.4716,-3.4697,-3.4719,-3.4715,-3.4722,-3.4721,-3.4737,-3.4715,-3.473,-3.4734,-3.4737,-3.4743,-3.4627,-3.4739,-3.4738,-3.4738,-3.4738,-3.4737,0,-3.4772,-3.4766,-3.4781,-3.4785,-3.4797,-3.4768,-3.4769,-3.4781,-3.4801,-3.48,-3.481,-3.4829,-3.4843,-3.4829,-3.4839,-3.4856,-3.4842,-3.4859,-3.4857,-3.4857,-3.4763,-3.4753,-3.487,-3.487,-3.487,-3.487,-3.487,-3.487,-3.4836,-3.4871,-3.4858,-3.4892,-3.4886,-3.4906,-3.491,-3.4912,-3.4911,-3.4935,-3.4946,-3.4936,-3.4929,-3.4939,-3.495,-3.4946,-3.4951,-3.4973,-3.4964,-3.4876,-3.4863,-3.4851,-3.4841,-3.4975,-3.4975,-3.5056,-3.5057,-3.5057]}]]